{"data":{"norad_id":47623,"intl_designator":"2021-012D","name":"STARLINK-1655","alt_names":[],"object_type":"PAYLOAD","status":"ACTIVE","operator":null,"country":"US","launch_date":"2021-02-16","launch_site_code":"AFETR","launch_vehicle":null,"mission":null,"orbit_class":"UNKNOWN","rcs_meters":null,"size_class":null,"mass_kg":null,"dimensions":null,"purposes":["comms"],"wikipedia_slug":null,"has_3d_model":false,"image_url":null,"decayed_at":null,"tle_current":{"epoch":"2026-05-25T00:00:02.000160Z","epoch_age_seconds":71120,"freshness":"FRESH","line1":"1 47623U 21012D   26145.00002315  .00163149  00000+0  73261-3 0  9992","line2":"2 47623  53.0324 306.9372 0006175 232.2662  70.2306 15.83128328  5849","mean_motion":15.83128328,"eccentricity":0.0006175,"inclination_deg":53.0324,"raan_deg":306.9372,"arg_perigee_deg":232.2662,"mean_anomaly_deg":70.2306,"bstar":0.00073261,"rev_number":584,"period_min":90.959145543127,"perigee_km":317.46301372789,"apogee_km":325.73718904811,"semimajor_km":6699.737101388,"source":"CELESTRAK","updated_at":"2026-05-25T13:38:16.559476Z"}}}